Weather History for Toluca Jose Maria, Mexico

Change the Weather History Date:

Sunday, May 12, 2013

  Actual Average Record
Temperature  
Mean Temperature 60 °F -  
Max Temperature 73 °F 73 °F 84 °F (1998)
Min Temperature 46 °F 44 °F 42 °F (1997)
Degree Days  
Heating Degree Days 6    
Growing Degree Days 10 (Base 50)    
Moisture  
Dew Point 40 °F    
Average Humidity 52    
Maximum Humidity 81    
Minimum Humidity 17    
Precipitation  
Precipitation 0.00 in - - ()
Sea Level Pressure  
Sea Level Pressure 30.14 in    
Wind  
Wind Speed 5 mph ()    
Max Wind Speed 20 mph    
Max Gust Speed -    
Visibility 3.7 miles    
Events Rain , Thunderstorm    
Averages and records for this station are not official NWS values.
T = Trace of Precipitation, MM = Missing Value Source: Averaged Metar Reports

Daily Weather History Graph

Daily Weather History Graph

Search for Another Location

Airport:

Trip Planner

Search our weather history database for the weather conditions in past years. The results will help you decide how hot, cold, wet, or windy it might be!

Date:

Astronomy

May. 12, 2013 Rise Set
Actual Time 7:04 AM CDT 8:05 PM CDT
Civil Twilight 6:40 AM CDT 8:28 PM CDT
Nautical Twilight 6:13 AM CDT 8:56 PM CDT
Astronomical Twilight 5:44 AM CDT 9:24 PM CDT
Moon 9:05 AM CDT (5/12) 10:29 PM CDT (5/12)
Length of Visible Light 13h 47m
Length of Day
13h 00m
Waxing Crescent, 7% of the Moon is Illuminated
May 12
Waxing Crescent
May 17
First Quarter
May 24
Full
May 31
Last Quarter
Jun 8
New

Hourly Weather History & Observations

Time (CDT) Temp. Dew Point Humidity Pressure Visibility Wind Dir Wind Speed Gust Speed Precip Events Conditions
12:45 AM 55.4 °F 42.8 °F 63% 29.75 in 3.0 mi SSW 4.6 mph - N/A   Haze
1:45 AM 55.4 °F 42.8 °F 63% 30.36 in 3.0 mi East 4.6 mph - N/A   Haze
2:45 AM 55.4 °F 44.6 °F 67% 30.34 in 3.0 mi Calm Calm - N/A   Haze
3:45 AM 51.8 °F 39.2 °F 62% 29.69 in 3.0 mi Calm Calm - N/A   Haze
4:45 AM 50.0 °F 37.4 °F 62% 30.34 in 3.0 mi East 3.5 mph - N/A   Haze
5:45 AM 48.2 °F 37.4 °F 66% 30.34 in 3.0 mi ESE 3.5 mph - N/A   Haze
6:45 AM 46.4 °F 41.0 °F 81% 29.78 in 2.0 mi Calm Calm - N/A   Mostly Cloudy
7:44 AM 46.4 °F 39.2 °F 76% 30.37 in 2.0 mi Calm Calm - N/A   Scattered Clouds
8:43 AM 53.6 °F 42.8 °F 67% 30.38 in 2.0 mi SSE 4.6 mph - N/A   Scattered Clouds
9:47 AM 60.8 °F 44.6 °F 55% 29.78 in 2.0 mi SE 6.9 mph - N/A   Scattered Clouds
10:46 AM 64.4 °F 42.8 °F 45% 30.39 in 3.0 mi SE 10.4 mph - N/A   Clear
11:45 AM 68.0 °F 42.8 °F 40% 30.37 in 3.0 mi SE 10.4 mph - N/A   Haze
12:52 PM 69.8 °F 23.0 °F 17% 29.70 in 4.0 mi South 13.8 mph - N/A   Mostly Cloudy
1:48 PM 71.6 °F 39.2 °F 31% 30.34 in 4.0 mi SSE 19.6 mph - N/A   Scattered Clouds
2:44 PM 73.4 °F 26.6 °F 18% 30.32 in 4.0 mi South 15.0 mph - N/A   Mostly Cloudy
3:47 PM 64.4 °F 41.0 °F 42% 29.73 in 4.0 mi SSW 9.2 mph - N/A Rain , Thunderstorm Thunderstorms and Rain
4:50 PM 68.0 °F 37.4 °F 33% 30.29 in 5.0 mi West 3.5 mph - N/A   Mostly Cloudy
5:48 PM 69.8 °F 37.4 °F 31% 30.27 in 6.0 mi South 11.5 mph - N/A   Mostly Cloudy
6:46 PM 66.2 °F 37.4 °F 35% 29.73 in 5.0 mi NW 4.6 mph - N/A   Mostly Cloudy
7:49 PM 64.4 °F 41.0 °F 42% 30.30 in 5.0 mi Calm Calm - N/A   Mostly Cloudy
8:57 PM 60.8 °F 48.2 °F 63% 30.33 in 5.0 mi NE 13.8 mph - N/A   Mostly Cloudy
9:45 PM 59.0 °F 46.4 °F 63% 29.78 in 5.0 mi ENE 9.2 mph - N/A   Mostly Cloudy
10:45 PM 57.2 °F 44.6 °F 63% 30.38 in 5.0 mi NE 8.1 mph - N/A   Scattered Clouds
11:45 PM 53.6 °F 44.6 °F 72% 30.40 in 5.0 mi SE 4.6 mph - N/A   Scattered Clouds